Temperature
14 13 13 13 13 13 13 13 13 12 12 12 12 12 11 11 11 11 10 10 10 10 10 10 10 10 10 10 10 10 10 10 10 10 10 10 10 10 10 10 10 10 10
13 13 13 13 13 13 12 12 12 12 12 12 11 11 11 11 11 10 10 10 10 10 10 9 9 9 9 9 9 9 10 10 10 9 9 9 9 10 9 9 10 10 10
13 13 13 13 13 12 12 12 12 12 11 11 11 11 11 10 10 10 10 10 9 9 9 9 9 9 9 9 9 9 9 9 9 9 9 9 9 9 9 9 9 9 9
13 13 13 12 12 12 12 12 11 11 11 11 11 11 10 10 10 10 9 9 9 9 9 9 9 9 9 9 9 9 9 9 9 9 9 9 9 9 9 9 9 9 9
12 12 12 12 12 12 11 11 11 11 11 11 11 10 10 10 9 9 9 9 9 8 8 8 8 8 8 8 8 8 8 9 9 9 9 9 9 9 9 9 9 9 8
12 12 12 12 12 11 11 11 11 11 10 10 10 10 9 9 9 9 9 8 8 8 8 8 8 8 8 8 8 8 8 8 8 8 8 8 8 8 8 8 8 8 8
11 11 11 11 11 11 11 11 10 10 10 10 10 9 9 9 9 9 8 8 8 8 8 8 8 8 8 8 8 8 8 8 8 8 8 8 8 8 8 8 8 8 8
11 11 11 11 11 11 11 10 10 10 9 9 9 8 8 8 8 8 8 8 8 7 7 7 7 7 7 7 7 7 7 7 7 7 8 8 8 8 8 8 8 8 7
10 11 11 11 11 10 10 10 10 9 9 9 8 8 7 7 7 8 7 7 7 7 7 7 7 7 7 7 7 7 7 7 7 7 7 7 7 7 7 7 7 7 7
10 10 10 10 10 10 10 9 9 9 9 8 8 8 7 7 7 6 7 7 7 7 7 6 6 6 6 6 6 6 6 6 6 7 7 7 7 7 7 7 7 7 7
10 10 9 10 10 9 9 9 9 9 8 8 8 7 7 7 6 6 6 6 6 6 6 6 6 6 6 6 6 6 6 6 6 6 6 6 6 6 6 7 7 6 6
9 9 9 9 9 9 9 9 8 8 8 8 8 7 7 7 6 6 6 6 6 6 6 6 6 6 6 5 6 6 6 6 6 6 6 6 6 6 6 6 6 6 6
9 9 9 9 9 8 8 8 8 8 8 8 7 7 7 6 6 6 6 5 5 5 5 6 5 5 5 5 5 5 5 5 5 5 6 6 6 6 6 6 6 6 6
8 8 8 8 8 8 8 8 8 7 7 7 7 7 7 6 6 6 5 5 5 5 5 5 5 5 5 5 5 5 5 5 5 5 5 5 5 5 5 5 5 5 5
8 8 8 8 8 8 8 7 7 7 7 7 7 6 6 6 6 5 5 5 5 4 4 5 5 5 5 5 5 5 5 5 5 5 5 5 5 5 5 5 5 5 5
7 7 7 7 7 7 7 7 7 7 7 7 6 6 6 6 5 5 5 5 5 4 4 4 4 4 5 5 4 4 5 5 5 5 5 5 5 5 5 5 5 5 5
6 7 7 7 7 7 7 7 6 6 6 6 6 6 6 5 5 5 5 5 5 4 4 4 4 4 4 4 4 4 4 4 4 4 4 4 4 4 4 4 4 4 4
6 6 6 6 6 6 6 6 6 6 6 6 6 6 5 5 5 5 5 4 4 4 4 4 4 4 4 4 4 4 4 4 4 4 4 4 4 4 4 4 4 4 4
5 6 6 6 6 6 6 6 6 6 6 5 5 5 5 5 5 5 4 4 4 4 3 3 4 4 4 4 4 4 4 4 4 4 4 4 4 4 4 4 4 4 4
5 5 5 5 5 5 5 5 5 5 5 5 5 5 5 5 5 4 4 4 3 3 3 3 3 3 3 3 3 3 4 4 4 4 3 3 3 3 4 3 3 3 3
4 5 4 5 5 5 5 5 5 5 5 5 5 4 4 4 4 4 4 4 3 3 3 3 3 3 3 3 3 3 3 3 3 3 3 3 3 3 3 3 3 3 3
4 4 4 4 4 4 4 4 4 4 4 4 4 4 4 4 4 4 4 3 3 3 3 3 3 2 3 2 2 2 2 2 2 3 3 3 3 3 3 3 3 3 3
3 4 4 4 4 4 4 4 4 4 4 4 4 4 4 4 4 4 3 3 3 3 2 2 2 2 2 2 2 2 2 2 2 2 2 3 3 3 3 3 2 2 2
3 3 3 3 3 3 3 3 3 3 3 3 3 3 3 3 3 3 3 3 3 3 2 2 2 2 2 2 2 2 2 2 2 2 2 2 3 3 3 3 2 2 2
2 2 2 2 3 3 3 3 3 2 3 3 3 3 3 3 3 3 3 3 3 3 2 2 2 2 2 2 2 2 2 1 2 2 2 1 2 2 3 3 2 2 2
2 2 2 2 2 2 2 2 2 2 2 3 3 2 2 2 2 2 2 2 2 2 2 2 2 2 2 2 2 1 1 1 1 1 1 1 1 1 1 2 2 2 2
Wind_Speed
4 3 3 3 3 3 2 2 2 2 2 2 2 2 2 2 2 2 2 3 4 4 5 6 7 7 7 8 8 8 8 9 8 9 9 9 10 10 10 11 11 10 10
5 4 3 2 2 2 2 1 1 1 1 1 2 2 2 2 2 3 3 3 4 5 6 7 7 8 8 9 9 9 10 10 9 9 9 10 10 11 11 11 11 11 11
6 4 3 2 1 2 2 1 2 2 2 2 2 2 2 3 3 3 3 3 3 5 6 7 8 9 9 9 10 10 10 10 10 10 10 10 10 11 11 12 12 11 10
6 5 3 2 2 3 2 1 1 2 2 2 1 1 2 2 3 3 4 4 4 5 6 7 8 9 9 10 11 11 11 11 11 11 11 11 11 11 11 12 11 11 11
6 5 3 2 3 3 2 1 1 1 1 2 2 2 2 1 2 3 3 4 5 5 6 7 8 9 10 11 12 12 12 12 11 11 11 11 11 11 11 11 11 10 11
6 5 3 3 3 2 1 1 1 1 1 1 2 3 2 2 2 2 2 4 5 6 6 6 7 7 10 11 12 13 13 12 12 11 11 11 11 10 10 11 11 11 11
5 4 3 2 2 2 2 1 1 2 2 2 2 3 3 3 3 2 2 2 4 5 6 7 7 7 8 10 12 13 13 13 13 12 12 11 10 10 11 11 12 12 12
4 4 3 2 2 2 2 2 2 1 1 2 2 2 2 3 3 3 2 2 3 4 5 6 6 7 7 7 11 14 14 14 13 13 12 12 11 11 11 11 12 12 12
3 3 3 2 2 2 2 2 2 2 1 0 2 2 1 1 3 3 2 3 4 3 3 4 6 7 8 8 9 11 13 14 14 13 13 13 12 12 12 12 12 12 12
3 3 3 3 2 2 2 2 2 2 3 2 0 1 1 2 1 2 3 3 4 3 4 4 4 6 7 8 9 11 13 13 14 14 14 14 13 13 13 12 11 12 11
2 3 2 2 2 2 2 2 2 2 2 3 2 0 0 1 1 1 3 4 4 3 3 3 3 4 6 7 8 11 13 13 14 14 14 14 13 13 13 12 11 11 11
1 2 2 2 1 1 2 2 1 3 2 2 1 1 1 1 1 1 2 4 4 4 4 3 3 3 5 7 9 12 12 12 13 13 13 13 13 13 13 12 11 11 11
1 1 1 1 0 1 1 1 1 1 2 2 2 2 1 1 1 1 1 2 3 3 2 2 3 3 5 7 8 11 11 12 13 13 13 13 12 12 12 11 11 11 11
1 1 1 1 1 0 1 1 1 1 1 2 2 2 1 1 1 1 1 1 3 3 2 3 3 3 4 6 8 10 9 12 12 12 12 12 12 11 11 11 10 11 11
0 1 1 1 1 0 1 2 2 2 2 2 2 2 2 2 1 1 1 1 1 3 4 3 2 3 5 6 8 8 7 10 12 12 12 12 11 11 11 11 11 11 11
1 1 0 0 0 0 1 1 1 1 1 1 2 2 2 2 2 1 1 1 1 2 3 3 3 4 5 6 8 7 7 10 10 10 11 12 11 11 11 11 10 11 11
0 0 1 1 1 1 1 1 1 1 2 2 2 2 3 2 2 2 1 1 1 1 4 4 3 4 4 4 5 6 7 6 7 10 11 11 11 11 11 10 10 11 12
1 1 1 1 1 1 1 2 2 2 2 2 2 2 3 2 2 2 2 2 2 2 2 5 5 4 4 4 4 4 5 6 6 9 11 11 11 11 11 10 11 11 12
1 1 1 1 1 1 2 2 2 2 3 3 3 3 3 2 3 3 3 3 2 2 2 3 5 4 3 3 4 5 5 4 6 8 10 10 11 11 11 11 11 11 12
1 1 1 1 1 2 2 1 1 1 2 2 3 3 3 3 4 4 3 3 2 2 2 2 4 4 3 3 3 4 5 4 5 6 7 9 10 10 11 12 12 12 12
1 1 1 2 1 2 2 1 1 1 1 2 3 3 3 3 3 3 2 2 1 1 2 2 3 3 3 3 4 3 4 5 5 3 4 6 6 6 7 10 11 11 12
2 2 1 1 2 2 3 1 0 1 1 2 3 3 3 2 3 3 2 2 1 2 2 2 3 3 4 4 4 3 3 4 4 3 4 6 5 5 6 6 10 12 12
1 2 2 2 3 3 3 2 1 1 1 2 2 2 2 2 2 2 2 2 2 2 3 3 3 4 4 4 3 3 3 4 4 4 4 4 4 5 6 8 11 11 12
2 2 2 2 2 4 4 2 2 1 1 2 2 2 3 2 2 1 1 2 2 3 3 3 3 3 3 3 3 3 3 3 3 3 2 2 3 4 7 7 9 10 12
2 2 2 2 2 4 4 2 1 1 1 2 2 2 2 3 3 1 1 1 3 3 3 3 3 3 3 2 1 1 2 2 4 3 2 1 3 4 4 4 7 11 13
2 2 2 2 3 3 4 2 1 1 1 2 2 2 2 3 3 1 1 1 2 3 2 2 2 3 2 1 2 1 1 2 3 2 1 2 2 3 3 3 4 7 9
Wind_Direction
132 123 118 110 102 99 94 70 42 33 32 27 45 59 54 56 54 41 23 12 9 6 3 359 353 347 343 338 333 327 324 320 319 320 318 313 311 310 309 307 299 290 283
138 134 129 115 104 108 106 94 62 59 36 52 43 44 49 53 47 28 20 15 15 8 360 353 350 346 341 340 338 335 330 325 322 318 314 311 309 308 309 308 305 294 290
140 136 134 133 117 110 91 66 48 57 55 48 29 32 52 49 47 37 27 20 9 4 358 350 345 342 341 339 336 333 330 325 321 318 316 314 311 308 307 306 306 299 295
134 129 128 136 116 98 84 99 91 63 44 40 24 13 33 45 42 43 35 27 19 5 354 348 343 342 342 340 339 338 335 330 323 318 316 314 312 309 308 306 306 300 295
123 124 123 117 112 97 83 85 74 86 65 33 17 16 6 23 22 35 33 28 19 10 359 350 349 347 344 340 340 339 337 332 326 319 315 314 313 310 308 307 307 301 302
126 117 119 115 115 117 107 93 89 68 87 51 37 16 357 355 19 23 19 25 18 10 2 357 354 346 344 341 340 339 337 334 331 328 323 318 315 313 311 310 310 304 300
130 118 101 116 126 150 152 130 108 79 58 60 52 15 355 359 13 360 12 23 10 5 6 2 358 353 347 345 341 338 335 334 333 331 328 324 319 316 314 313 313 310 304
123 128 123 144 140 145 131 113 103 88 52 65 90 68 1 348 352 354 359 5 360 3 8 0 356 356 347 345 341 341 338 336 336 332 329 328 324 320 316 315 314 314 310
111 111 128 122 130 134 145 153 141 128 141 32 101 112 110 268 309 319 339 354 352 349 346 348 354 349 345 345 340 339 340 338 336 331 329 328 325 321 317 315 315 314 311
102 100 99 107 123 134 153 170 157 143 147 166 194 54 145 172 210 300 316 333 337 337 333 338 338 334 337 341 339 338 339 340 339 334 330 328 325 324 319 317 317 319 318
66 82 105 101 117 142 166 171 174 154 158 170 175 169 43 38 127 227 290 312 325 315 315 310 314 324 328 335 338 337 341 342 341 338 334 332 329 327 325 323 321 321 320
28 45 69 89 118 141 169 183 182 176 177 179 185 174 175 181 231 229 270 297 302 305 309 301 306 311 319 328 333 338 341 342 342 340 339 335 332 329 330 329 327 327 326
342 303 37 47 145 171 157 149 169 186 187 185 199 215 214 224 195 213 259 287 298 299 299 301 289 294 314 322 324 332 339 342 342 342 342 340 334 329 327 330 332 331 332
216 308 18 36 40 112 146 155 188 214 204 205 223 223 241 260 216 205 216 268 308 303 300 286 300 285 307 315 315 328 331 337 340 341 341 341 340 338 338 337 336 337 337
359 36 40 50 33 140 179 181 207 219 215 219 222 227 239 255 242 239 221 211 229 295 297 278 299 303 307 312 322 325 321 330 337 340 342 342 345 346 344 345 346 347 346
43 45 261 198 235 256 222 194 217 227 215 238 226 223 240 254 253 251 238 248 237 244 278 281 288 303 305 316 325 330 327 336 341 344 350 350 348 348 349 349 349 349 348
37 175 252 225 213 211 222 205 216 209 212 244 256 244 246 246 246 255 248 248 265 257 286 298 301 311 312 317 326 330 331 333 340 348 351 352 352 351 349 350 350 348 347
323 307 294 247 235 234 222 209 217 215 226 241 251 259 266 254 247 252 249 252 257 259 276 301 312 314 311 310 322 333 340 339 340 345 351 353 354 355 354 353 351 348 347
345 342 327 275 265 265 243 226 216 221 234 245 245 246 259 256 251 260 259 258 263 282 291 292 303 310 317 326 337 336 337 340 340 341 347 352 354 357 358 356 353 351 350
337 309 296 279 277 280 262 243 225 239 249 260 260 255 252 251 250 252 256 259 270 289 306 299 309 315 319 323 329 334 335 340 336 341 346 345 347 354 357 354 353 354 353
331 317 322 317 307 277 266 270 229 256 264 273 276 270 269 271 290 265 263 262 257 279 295 299 308 319 320 327 320 317 319 328 327 330 334 338 340 347 350 348 351 353 352
344 342 318 304 294 284 291 299 280 228 258 272 277 280 280 278 294 309 289 280 265 253 265 272 292 292 297 308 311 312 318 325 317 324 332 321 332 329 334 343 344 348 350
325 314 308 296 289 288 295 283 312 249 247 265 279 280 287 290 311 282 300 307 286 286 264 250 259 275 279 282 281 298 307 311 296 299 318 307 320 321 325 332 340 348 351
293 284 288 287 291 295 300 297 305 292 257 262 266 269 273 273 280 307 313 318 285 276 285 276 253 266 276 276 260 262 278 307 300 307 320 298 310 313 322 328 337 349 352
291 286 283 280 284 292 298 299 330 269 265 275 281 277 283 275 277 311 311 309 304 294 319 324 333 341 339 336 359 10 330 325 316 310 340 315 306 317 314 318 335 344 347
274 289 296 282 275 283 292 292 306 255 264 282 288 278 281 294 297 302 260 262 291 290 298 330 351 353 355 349 7 2 275 293 310 300 308 335 316 338 323 306 319 332 340
Height
1532 1532 1532 1532 1532 1532 1532 1532 1531 1531 1531 1531 1530 1530 1529 1529 1528 1527 1526 1525 1524 1523 1522 1521 1520 1518 1517 1515 1514 1512 1510 1509 1507 1506 1504 1503 1502 1501 1500 1499 1498 1496 1496
1531 1531 1531 1531 1531 1531 1531 1531 1530 1530 1530 1529 1529 1529 1528 1528 1527 1526 1525 1524 1523 1522 1521 1520 1518 1517 1515 1514 1512 1510 1508 1506 1505 1503 1502 1500 1499 1497 1496 1495 1494 1493 1492
1529 1530 1530 1530 1530 1530 1530 1530 1529 1529 1529 1528 1528 1528 1527 1526 1526 1525 1524 1523 1522 1521 1519 1518 1516 1515 1513 1512 1510 1508 1506 1504 1502 1501 1499 1498 1496 1494 1493 1492 1491 1490 1489
1528 1528 1528 1528 1529 1528 1528 1528 1528 1528 1528 1527 1526 1526 1526 1525 1525 1524 1523 1522 1521 1519 1518 1516 1515 1513 1511 1510 1508 1506 1503 1501 1500 1498 1496 1495 1493 1492 1490 1489 1487 1486 1485
1526 1526 1527 1527 1527 1527 1527 1526 1526 1526 1526 1526 1525 1525 1525 1524 1524 1523 1522 1521 1519 1518 1516 1515 1513 1511 1509 1508 1506 1504 1501 1499 1497 1495 1494 1492 1490 1488 1487 1485 1484 1483 1482
1524 1525 1525 1525 1525 1525 1525 1525 1525 1525 1525 1524 1524 1523 1523 1523 1522 1521 1520 1519 1518 1516 1515 1513 1511 1509 1508 1505 1503 1501 1499 1497 1494 1492 1490 1489 1487 1485 1484 1482 1481 1480 1478
1522 1522 1522 1523 1523 1523 1523 1523 1523 1523 1522 1522 1522 1522 1522 1522 1521 1520 1519 1518 1516 1515 1513 1511 1509 1507 1505 1503 1501 1499 1496 1494 1492 1490 1488 1486 1484 1482 1481 1479 1478 1476 1475
1520 1520 1521 1520 1520 1521 1521 1521 1521 1521 1521 1521 1521 1520 1520 1521 1519 1519 1518 1516 1515 1513 1511 1510 1508 1505 1503 1501 1499 1496 1493 1492 1489 1487 1485 1483 1481 1479 1478 1476 1475 1473 1472
1519 1519 1519 1518 1518 1518 1518 1519 1519 1519 1519 1520 1520 1520 1519 1519 1518 1517 1516 1515 1513 1511 1510 1508 1506 1504 1501 1499 1496 1494 1491 1489 1487 1485 1483 1480 1478 1476 1475 1473 1471 1470 1468
1516 1517 1517 1516 1517 1517 1517 1517 1518 1518 1518 1518 1519 1519 1519 1518 1517 1515 1514 1512 1511 1509 1508 1506 1504 1502 1499 1496 1494 1492 1489 1487 1484 1482 1479 1477 1475 1473 1471 1470 1468 1466 1465
1514 1515 1515 1515 1515 1515 1515 1516 1516 1516 1516 1516 1516 1516 1516 1516 1515 1514 1511 1509 1508 1507 1505 1504 1502 1499 1497 1494 1492 1489 1487 1484 1481 1479 1476 1474 1472 1470 1468 1466 1464 1463 1462
1512 1512 1513 1513 1513 1513 1514 1514 1514 1514 1514 1515 1515 1515 1514 1513 1512 1512 1509 1507 1505 1504 1503 1501 1499 1497 1495 1492 1489 1487 1484 1482 1479 1476 1473 1471 1468 1467 1465 1464 1462 1460 1458
1509 1510 1510 1510 1511 1511 1512 1512 1512 1512 1512 1512 1512 1512 1512 1511 1511 1510 1508 1506 1503 1501 1500 1498 1497 1495 1492 1490 1487 1485 1482 1479 1476 1474 1471 1468 1465 1464 1463 1461 1459 1457 1455
1507 1507 1507 1508 1509 1509 1509 1510 1510 1510 1510 1510 1510 1510 1510 1509 1508 1508 1506 1504 1501 1499 1497 1496 1494 1493 1490 1488 1485 1483 1479 1477 1474 1472 1469 1466 1463 1462 1460 1458 1456 1454 1452
1504 1505 1505 1506 1506 1506 1507 1507 1507 1507 1507 1508 1508 1507 1507 1506 1506 1505 1504 1503 1501 1497 1494 1492 1491 1490 1488 1485 1483 1480 1478 1475 1472 1469 1467 1464 1462 1460 1458 1456 1454 1452 1450
1502 1502 1503 1503 1504 1504 1504 1504 1504 1504 1505 1505 1504 1504 1504 1503 1503 1502 1501 1500 1499 1497 1493 1491 1489 1488 1486 1483 1481 1478 1476 1473 1470 1468 1465 1463 1460 1459 1456 1454 1452 1450 1447
1499 1500 1500 1500 1501 1501 1501 1501 1502 1502 1502 1501 1501 1501 1500 1500 1499 1499 1498 1497 1496 1494 1491 1488 1487 1485 1483 1481 1478 1476 1473 1470 1468 1466 1463 1461 1459 1457 1454 1452 1450 1447 1445
1497 1497 1498 1498 1498 1498 1498 1498 1499 1499 1498 1498 1498 1497 1497 1497 1496 1495 1495 1494 1493 1491 1490 1486 1484 1482 1480 1478 1476 1474 1471 1469 1466 1464 1462 1459 1457 1455 1452 1450 1447 1445 1442
1495 1495 1495 1495 1495 1495 1495 1495 1495 1495 1495 1495 1495 1494 1494 1493 1493 1492 1491 1490 1489 1488 1487 1484 1481 1480 1478 1476 1474 1471 1469 1467 1465 1462 1460 1458 1455 1453 1450 1447 1445 1442 1440
1492 1492 1492 1492 1492 1492 1492 1492 1492 1492 1492 1492 1491 1491 1490 1490 1489 1489 1488 1487 1486 1485 1484 1482 1479 1477 1475 1474 1472 1469 1466 1464 1462 1460 1458 1456 1454 1451 1448 1445 1442 1440 1437
1489 1489 1489 1489 1489 1489 1489 1489 1489 1489 1489 1488 1488 1487 1487 1487 1486 1485 1484 1483 1482 1481 1480 1479 1476 1474 1472 1471 1469 1467 1465 1463 1460 1459 1456 1454 1452 1449 1446 1443 1440 1438 1435
1486 1486 1486 1486 1486 1486 1486 1486 1486 1485 1485 1485 1484 1484 1484 1483 1483 1482 1481 1480 1480 1478 1477 1475 1474 1472 1470 1469 1468 1466 1464 1461 1458 1458 1454 1452 1450 1447 1444 1441 1439 1436 1433
1483 1483 1483 1483 1483 1483 1483 1483 1483 1482 1482 1481 1481 1481 1480 1480 1479 1479 1478 1477 1476 1475 1474 1473 1471 1469 1468 1467 1466 1464 1462 1460 1458 1456 1453 1449 1448 1445 1443 1440 1438 1435 1431
1480 1480 1480 1480 1480 1480 1480 1480 1480 1479 1479 1478 1478 1477 1477 1476 1476 1475 1474 1473 1472 1471 1471 1469 1469 1468 1467 1465 1464 1462 1460 1458 1456 1455 1452 1448 1445 1443 1441 1439 1436 1433 1430
1478 1477 1477 1477 1477 1477 1477 1477 1477 1476 1475 1475 1474 1474 1474 1473 1473 1472 1471 1470 1469 1468 1467 1467 1466 1465 1464 1463 1462 1460 1458 1456 1453 1452 1450 1448 1444 1441 1439 1437 1435 1432 1429
1475 1474 1474 1474 1474 1473 1474 1474 1474 1473 1472 1472 1471 1471 1470 1470 1470 1469 1468 1467 1465 1465 1464 1463 1463 1462 1462 1460 1459 1458 1456 1454 1452 1450 1449 1447 1444 1441 1437 1435 1433 1431 1427